Regional Weather Roundup
Issued by NWS Newport/Morehead, NC

Current Version | Previous Version | Graphics & Text | Print | Product List | Glossary Off
Versions: 1 2 3 4 5 6 7 8 9 10 11 12 13 14 15 16 17 18 19 20 21 22 23 24 25 26 27 28 29 30 31 32 33 34 35 36 37 38 39 40 41 42 43 44 45 46 47 48 49 50

000
ASUS42 KMHX 040812
RWRMHX
WEATHER ROUNDUP FOR EASTERN NORTH CAROLINA
NATIONAL WEATHER SERVICE NEWPORT/MOREHEAD CITY NC
400 AM EDT MON MAY 04 2015

NOTE: "FAIR" INDICATES FEW OR NO CLOUDS BELOW 12,000 FEET
WITH NO SIGNIFICANT WEATHER AND/OR OBSTRUCTIONS TO VISIBILITY

NCZ015>017-031-032-045>047-102-103-040900-
NORTH COAST

CITY           SKY/WX    TMP DP  RH WIND       PRES   REMARKS
EDENTON        PTCLDY    56  52  84 S3        30.25S
ELIZABETH CITY CLEAR     54  48  80 SW7       30.25R
KITTY HAWK     MOSUNNY   61  51  70 CALM      30.24R
MANTEO         CLOUDY    59  53  78 CALM      30.25S

$$

NCZ045>047-081-094-103-104-040900-
CENTRAL COAST

CITY           SKY/WX    TMP DP  RH WIND       PRES   REMARKS
FRISCO         PTCLDY    57  55  93 NW3       30.25S
SWANQUARTER      N/A     63 N/A N/A CALM      30.21S

$$

NCZ095-097-098-100-101-040900-
SOUTHERN COAST

CITY           SKY/WX    TMP DP  RH WIND       PRES   REMARKS
BEAUFORT       CLEAR     56  55  97 CALM      30.25S
CEDAR ISLAND     N/A     61 N/A N/A SW3       30.30S
JACKSONVILLE   CLEAR     53  51  93 CALM      30.25S
PINEY ISLAND   SUNNY    N/A N/A N/A CALM      30.25S
WILMINGTON     CLEAR     53  51  93 CALM      30.24S


$$

NCZ011>013-027>030-043-044-078>080-089-090>093-098-040900-
COASTAL PLAIN

CITY           SKY/WX    TMP DP  RH WIND       PRES   REMARKS
AHOSKIE        CLEAR     52  47  85 CALM      30.25S
CLINTON        CLEAR     52  50  95 CALM      30.26S
ELIZABETHTOWN  CLEAR     53  52  97 CALM      30.24F
GOLDSBORO      CLEAR     53  49  88 CALM      30.23S
GREENVILLE     PTCLDY    55  50  82 CALM      30.26S
HAVELOCK       CLEAR     52  50  93 CALM      30.26S
KENANSVILLE    CLEAR     48  47  95 CALM      30.26S
KINSTON        CLEAR     50  49  96 CALM      30.26S
NEW BERN         N/A     53  50  89 CALM      30.26S
RICHLANDS      CLEAR     48  43  81 CALM      30.26S
ROCKY MOUNT    CLOUDY    53  49  86 CALM      30.25S
WASHINGTON     PTCLDY    55  50  83 CALM      30.26S
WHITEVILLE     PTCLDY    54  52  94 CALM      30.24S

$$

AMZ130-135-150-152-154-156-158-170-250-252-270-ANZ085-086-088-633-658-670-040900-
MARINE OBSERVATIONS

STATION/POSITION TIME  TEMP    WIND        PRES    WAVE   SWELL
                       AIR SEA DIR/SP/G            HT/PER HT/PER
                 (UTC) (F)     (DEG/KT/KT) (MB)    (FT/S) (FT/S)
CHESAPEAKE LIGHT 0800   62     240/ 16/ 17 1023.9
64 E VA BEACH    0750   60 61  250/ 10/ 12 1023.5    5/11   5/11
DUCK             0700   63 55  230/  7/  8 1023.0
2 E DUCK         0711      56                N/A     4/10   2/13
OREGON INLET     0700   64 61  250/  9/ 12 1023.9
13E OREGON INLT  0800      56                N/A     4/10   2/11
HATTERAS CG      0700   65 62  270/  4/  5 1023.8
DIAMOND BUOY     0750   62 60  320/  6/  6 1024.4    3/11   3/11
CAPE LOOKOUT     0800   65     310/  1/  2 1024.1
BEAUFORT LAB     0700   64 65  240/  1/  3 1023.4
27 SE WRIGHTSVLE 0700   68 71  270/  6/  6   N/A
5 SE WRIGHTSVLE  NOT AVBL
225 S CAPE HAT   0750   67 69   60/  8/ 12 1024.3    6/11   7/11
41 SE CHARLESTON 0750   72 73  150/  8/ 10 1023.3    3/11   3/11

$$



USA.gov is the U.S. government's official web portal to all federal, state and local government web resources and services.